CW1839 Weather Reports


Display with metric or nautical units.
time (UTC)temp
F
wind
direction
speed
MPH
gust
MPH
rain 1hr
in
rain 24hr
in
rain mn
in
humidity
%
barometer
mb
20171123221721 53 322 0.0 0.0 0.00 0.00 0.00 78 1017.7
20171123220134 53 322 0.0 0.0 0.00 0.00 0.00 79 1017.8
20171123214716 53 322 0.0 0.0 0.00 0.00 0.00 78 1017.9
20171123213113 53 322 0.0 0.0 0.00 0.00 0.00 76 1018.0
20171123211616 53 320 0.0 0.0 0.00 0.00 0.00 76 1018.1
20171123210123 53 318 0.0 0.0 0.00 0.00 0.00 75 1018.0
20171123204618 53 318 0.0 0.0 0.00 0.00 0.00 75 1017.9
20171123203118 53 319 0.0 0.0 0.00 0.00 0.00 75 1017.9
20171123201506 53 322 0.0 0.0 0.00 0.00 0.00 75 1017.9
20171123195950 53 335 0.0 0.0 0.00 0.00 0.00 75 1018.0
20171123194535 54 335 0.0 0.0 0.00 0.00 0.00 74 1017.9
20171123193006 54 336 0.0 0.0 0.00 0.00 0.00 73 1017.8
20171123191515 54 337 0.0 0.0 0.00 0.00 0.00 73 1017.6
20171123190004 54 349 0.0 0.0 0.00 0.00 0.00 74 1017.8
20171123184450 54 350 0.0 0.0 0.00 0.00 0.00 77 1017.8
20171123183028 54 0 0.0 0.0 0.00 0.00 0.00 79 1017.7
20171123181458 54 17 0.0 0.0 0.00 0.00 0.00 81 1017.6
20171123180003 54 20 0.0 0.0 0.00 0.00 0.00 82 1017.6
20171123174633 54 21 0.0 0.0 0.00 0.00 0.00 82 1017.5
20171123172949 55 48 0.0 0.0 0.00 0.00 0.00 82 1017.4
20171123171212 55 48 0.0 0.0 0.00 0.00 0.00 81 1017.2
20171123165723 55 92 0.0 0.0 0.00 0.00 0.00 81 1017.0
20171123164223 55 93 0.0 0.0 0.00 0.00 0.00 81 1017.0
20171123162704 56 92 0.0 0.0 0.00 0.00 0.00 81 1017.0
20171123161210 56 92 0.0 0.0 0.00 0.00 0.00 80 1017.0
20171123155612 56 92 0.0 0.0 0.00 0.00 0.00 78 1016.7
20171123154117 57 92 0.0 0.0 0.00 0.00 0.00 77 1016.6
20171123152627 58 93 0.0 0.0 0.00 0.00 0.00 76 1016.5
20171123151129 58 92 0.0 0.0 0.00 0.00 0.00 74 1016.4
20171123145621 59 92 0.0 0.0 0.00 0.00 0.00 72 1016.3
20171123144009 61 68 0.0 0.0 0.00 0.00 0.00 70 1016.1
20171123142448 62 88 0.0 0.0 0.00 0.00 0.00 66 1016.0
20171123140951 64 121 0.0 0.0 0.00 0.00 0.00 66 1016.1
20171123135514 63 107 0.0 0.0 0.00 0.00 0.00 65 1016.1
20171123134008 63 100 0.0 0.0 0.00 0.00 0.00 66 1016.0
20171123132503 63 104 0.0 0.0 0.00 0.00 0.00 68 1016.0
20171123130958 63 103 0.0 0.0 0.00 0.00 0.00 68 1016.1
20171123125456 62 86 0.0 0.0 0.00 0.00 0.00 68 1016.0
20171123123955 62 79 0.0 0.0 0.00 0.00 0.00 68 1016.1
20171123122450 62 103 0.0 0.0 0.00 0.00 0.00 69 1016.3
20171123121001 62 104 0.0 0.0 0.00 0.00 0.00 68 1016.4
20171123115222 63 112 0.0 0.0 0.00 0.00 0.00 69 1016.6
20171123113721 63 114 0.0 0.0 0.00 0.00 0.00 68 1016.8
20171123112210 63 137 0.0 0.0 0.00 0.00 0.00 69 1016.9
20171123110621 62 120 0.0 0.0 0.00 0.00 0.00 70 1016.9
20171123105142 62 127 0.0 0.0 0.00 0.00 0.00 70 1017.1
20171123103615 61 96 0.0 0.0 0.00 0.00 0.00 71 1017.2
20171123102112 61 114 0.0 0.0 0.00 0.00 0.00 71 1017.4
20171123100619 61 107 0.0 0.0 0.00 0.00 0.00 71 1017.5
20171123095104 61 85 0.0 0.0 0.00 0.00 0.00 71 1017.6
20171123093507 61 79 0.0 0.0 0.00 0.00 0.00 69 1017.7
20171123092014 62 112 0.0 0.0 0.00 0.00 0.00 66 1017.6
20171123090459 62 196 0.0 0.0 0.00 0.00 0.00 64 1017.6
20171123084951 62 244 0.0 0.0 0.00 0.00 0.00 59 1017.6
20171123083507 61 248 0.0 0.0 0.00 0.00 0.00 59 1017.5
20171123082003 60 256 1.0 0.0 0.00 0.00 0.00 62 1017.4
20171123080459 59 202 0.0 0.0 0.00 0.00 0.00 65 1017.3
20171123074950 58 253 0.0 0.0 0.00 0.00 0.00 65 1017.3
20171123073501 57 260 0.0 0.0 0.00 0.00 0.00 66 1017.3
20171123071953 55 261 0.0 0.0 0.00 0.00 0.00 68 1017.2
20171123070207 53 330 0.0 0.0 0.00 0.00 0.00 70 1017.3
20171123064717 51 330 0.0 0.0 0.00 0.00 0.00 72 1017.3
20171123063207 50 330 0.0 0.0 0.00 0.00 0.00 72 1017.2
20171123061720 50 335 0.0 0.0 0.00 0.00 0.00 72 1017.0
20171123060117 49 336 0.0 0.0 0.00 0.00 0.00 72 1016.8
20171123054626 49 336 0.0 0.0 0.00 0.00 0.00 73 1016.7
20171123053104 49 339 0.0 0.0 0.00 0.00 0.00 75 1016.7
20171123051617 50 339 0.0 0.0 0.00 0.00 0.00 75 1016.6
20171123050127 50 344 0.0 0.0 0.00 0.00 0.00 72 1016.5
20171123044512 49 0 0.0 0.0 0.00 0.00 0.00 73 1016.4
20171123043003 49 0 0.0 0.0 0.00 0.00 0.00 76 1016.3
20171123041608 49 0 0.0 0.0 0.00 0.00 0.00 75 1016.3
20171123035957 49 0 0.0 0.0 0.00 0.00 0.00 74 1016.2
20171123034612 50 0 0.0 0.0 0.00 0.00 0.00 72 1016.1
20171123033702 50 339 0.0 0.0 0.00 0.00 0.00 72 1016.2
20171123032301 50 329 0.0 0.0 0.00 0.00 0.00 73 1016.3
20171123025958 50 337 0.0 0.0 0.00 0.00 0.00 73 1016.2
20171123024451 50 339 0.0 0.0 0.00 0.00 0.00 73 1016.2
20171123022958 50 339 0.0 0.0 0.00 0.00 0.00 73 1016.4
20171123021451 50 340 0.0 0.0 0.00 0.00 0.00 74 1016.5
20171123015722 51 343 0.0 0.0 0.00 0.00 0.00 76 1016.5
20171123014208 50 343 0.0 0.0 0.00 0.00 0.00 77 1016.6
20171123012718 50 346 0.0 0.0 0.00 0.00 0.00 78 1016.7
20171123011206 51 349 0.0 0.0 0.00 0.00 0.00 77 1016.7
20171123005710 51 349 0.0 0.0 0.00 0.00 0.00 78 1016.8
20171123004115 51 349 0.0 0.0 0.00 0.00 0.00 78 1016.8
20171123002624 51 349 0.0 0.0 0.00 0.00 0.00 80 1016.8
20171123001107 51 349 0.0 0.0 0.00 0.00 0.00 80 1016.9
20171122235610 51 349 0.0 0.0 0.00 0.00 0.00 80 1016.9
20171122234119 52 349 0.0 0.0 0.00 0.00 0.00 80 1017.0
20171122232604 51 349 0.0 0.0 0.00 0.00 0.00 78 1017.0
20171122230950 51 349 0.0 0.0 0.00 0.00 0.00 77 1017.0
20171122225508 51 349 0.0 0.0 0.00 0.00 0.00 77 1017.2
20171122224002 51 349 0.0 0.0 0.00 0.00 0.00 75 1017.2
20171122222603 51 350 0.0 0.0 0.00 0.00 0.00 75 1017.1